Ramona, CA

7:06 AM PST on January 20, 2018 (GMT -0800)
Ramona

Weather History for KRNM - October, 2013

Change the Weather History Date:

Wednesday, October 2, 2013

  Actual Average Record
Temperature  
Mean Temperature 65 °F 66 °F  
Max Temperature 78 °F 82 °F 100 °F (1980)
Min Temperature 52 °F 51 °F 41 °F (2002)
Degree Days  
Heating Degree Days 0 2  
Month to date heating degree days 1 4  
Since 1 July heating degree days 16 22  
Cooling Degree Days 0 3  
Month to date cooling degree days 0 6  
Year to date cooling degree days 883 799  
Growing Degree Days 14 (Base 50)    
Moisture  
Dew Point 54 °F    
Average Humidity 70    
Maximum Humidity 100    
Minimum Humidity 40    
Precipitation  
Precipitation 0.00 in 0.00 in 0.01 in (1976)
Month to date precipitation 0.00 0.00  
Year to date precipitation 4.59 11.90  
Since 1 July precipitation 0.09  
Snow  
Snow 0.00 in - - ()
Month to date snowfall 0.0  
Year to date snowfall 0.0  
Snow Depth 0.00 in    
Sea Level Pressure  
Sea Level Pressure 29.93 in    
Wind  
Wind Speed 5 mph (WNW)    
Max Wind Speed 14 mph    
Max Gust Speed 26 mph    
Visibility 5 miles    
Events Fog    
T = Trace of Precipitation, MM = Missing Value Source: NWS Daily Summary

Daily Weather History Graph

Daily Weather History Graph

Search for Another Location

Airport or City:

Trip Planner

Search our weather history database for the weather conditions in past years. The results will help you decide how hot, cold, wet, or windy it might be!

Date:

Astronomy

Oct. 02, 2013 Rise Set
Actual Time 6:42 AM PDT 6:30 PM PDT
Civil Twilight 6:18 AM PDT 6:55 PM PDT
Nautical Twilight 5:49 AM PDT 7:23 PM PDT
Astronomical Twilight 5:20 AM PDT 7:52 PM PDT
Moon 4:26 AM PDT (10/2) 5:04 PM PDT (10/2)
Length of Visible Light 12h 37m
Length of Day
11h 47m
Waning Crescent, 6% of the Moon is Illuminated
Oct 2
Waning Crescent
Oct 4
New
Oct 11
First Quarter
Oct 18
Full
Oct 26
Last Quarter

Hourly Weather History & Observations

Time (PDT) Temp. Dew Point Humidity Pressure Visibility Wind Dir Wind Speed Gust Speed Precip Events Conditions
12:04 AM 55.4 °F 55.4 °F 100% 29.95 in 0.2 mi Calm Calm - N/A Fog Fog
12:12 AM 55.4 °F 55.4 °F 100% 29.95 in 0.5 mi Calm Calm - N/A Fog Fog
12:20 AM 55.4 °F 55.4 °F 100% 29.95 in 0.2 mi Calm Calm - N/A Fog Fog
12:53 AM 55.0 °F 55.0 °F 100% 29.91 in 0.2 mi Calm Calm - N/A Fog Fog
1:53 AM 55.0 °F 54.0 °F 96% 29.92 in 0.2 mi Calm Calm - N/A Fog Fog
2:53 AM 55.0 °F 54.0 °F 96% 29.90 in 0.2 mi Calm Calm - N/A Fog Fog
3:53 AM 54.0 °F 54.0 °F 100% 29.91 in 0.5 mi Calm Calm - N/A Fog Fog
4:04 AM 55.4 °F 53.6 °F 94% 29.94 in 0.2 mi Calm Calm - N/A Fog Fog
4:30 AM 53.6 °F 53.6 °F 100% 29.95 in 0.5 mi Calm Calm - N/A Fog Fog
4:53 AM 54.0 °F 54.0 °F 100% 29.91 in 0.5 mi Calm Calm - N/A Fog Fog
5:53 AM 53.1 °F 53.1 °F 100% 29.93 in 0.2 mi ENE 4.6 mph - N/A Fog Fog
6:53 AM 52.0 °F 52.0 °F 100% 29.94 in 0.2 mi Calm Calm - N/A Fog Fog
7:46 AM 53.6 °F 51.8 °F 94% 29.97 in 0.8 mi Calm Calm - N/A   Mist
7:51 AM 53.6 °F 51.8 °F 94% 29.97 in 1.2 mi Calm Calm - N/A   Overcast
7:53 AM 53.1 °F 52.0 °F 96% 29.95 in 1.2 mi Calm Calm - N/A   Overcast
8:13 AM 53.6 °F 51.8 °F 94% 29.98 in 1.0 mi Calm Calm - N/A   Overcast
8:22 AM 53.6 °F 51.8 °F 94% 29.98 in 1.8 mi Calm Calm - N/A   Overcast
8:29 AM 53.6 °F 51.8 °F 94% 29.98 in 2.5 mi Calm Calm - N/A   Overcast
8:40 AM 53.6 °F 53.6 °F 100% 29.98 in 4.0 mi Calm Calm - N/A   Overcast
8:53 AM 54.0 °F 53.1 °F 97% 29.97 in 6.0 mi Calm Calm - N/A   Scattered Clouds
9:53 AM 64.0 °F 53.1 °F 67% 29.96 in 10.0 mi WNW 5.8 mph - N/A   Partly Cloudy
10:53 AM 70.0 °F 54.0 °F 57% 29.95 in 10.0 mi Variable 3.5 mph - N/A   Clear
11:53 AM 73.0 °F 53.1 °F 49% 29.93 in 10.0 mi WNW 5.8 mph - N/A   Clear
12:53 PM 77.0 °F 52.0 °F 42% 29.91 in 10.0 mi NW 11.5 mph 17.3 mph N/A   Clear
1:53 PM 75.9 °F 54.0 °F 46% 29.88 in 10.0 mi WNW 11.5 mph - N/A   Clear
2:53 PM 77.0 °F 55.0 °F 47% 29.88 in 10.0 mi WNW 12.7 mph - N/A   Clear
3:53 PM 75.0 °F 55.0 °F 50% 29.87 in 10.0 mi WNW 11.5 mph - N/A   Clear
4:53 PM 71.1 °F 57.0 °F 61% 29.87 in 10.0 mi West 10.4 mph - N/A   Clear
5:53 PM 66.9 °F 55.9 °F 68% 29.88 in 10.0 mi West 9.2 mph - N/A   Clear
6:53 PM 61.0 °F 54.0 °F 78% 29.89 in 10.0 mi West 4.6 mph - N/A   Clear
7:53 PM 57.9 °F 54.0 °F 87% 29.91 in 10.0 mi West 5.8 mph - N/A   Clear
8:53 PM 55.9 °F 53.1 °F 90% 29.93 in 9.0 mi WNW 3.5 mph - N/A   Clear
9:08 PM 55.4 °F 53.6 °F 94% 29.95 in 9.0 mi WNW 3.5 mph - N/A   Scattered Clouds
9:17 PM 55.4 °F 53.6 °F 94% 29.94 in 9.0 mi Calm Calm - N/A   Mostly Cloudy
9:53 PM 57.9 °F 55.9 °F 93% 29.93 in 7.0 mi Calm Calm - N/A   Overcast
10:53 PM 57.9 °F 55.0 °F 90% 29.93 in 8.0 mi Variable 3.5 mph - N/A   Overcast
11:53 PM 57.9 °F 55.0 °F 90% 29.93 in 7.0 mi Calm Calm - N/A   Overcast